Regional Weather Roundup
Issued by NWS

Home | Current Version | Previous Version | Text Only | Print | Product List | Glossary On
Versions: 1 2 3 4 5 6 7 8 9 10 11 12 13 14 15 16 17 18 19 20 21 22 23 24 25 26 27 28
000
ASUS44 KJAN 240610
RWRMS

MISSISSIPPI HOURLY WEATHER ROUNDUP
NATIONAL WEATHER SERVICE JACKSON MS
100 AM CDT MON APR 24 2017

NOTE: "FAIR: INDICATES FEW OR NO CLOUDS BELOW 12,000 FEET WITH NO
SIGNIFICANT WEATHER AND/OR OBSTRUCTIONS TO VISIBILITY.

MSZ001>002-007>008-010>013-018>021-025>028-034>036-240700-
NORTHWEST MISSISSIPPI

CITY           SKY/WX    TMP DP  RH WIND       PRES   REMARKS
CLEVELAND      FAIR      53  53  99 W7        29.91F
GREENWOOD      CLEAR     50  49  96 CALM      29.90F
6HR MIN TEMP:  49; 6HR MAX TEMP:  59;

GREENVILLE     PTCLDY    52  48  86 CALM      29.91F
6HR MIN TEMP:  51; 6HR MAX TEMP:  63;

OXFORD         FAIR      48  46  93 CALM      29.90F
TUNICA         CLEAR     48  45  87 NW7       29.90F
WINONA         MOCLDY    50  49  97 CALM      29.90F
$$

MSZ003>006-009-014>017-022>024-029>033-037>039-240700-
NORTHEAST MISSISSIPPI

CITY           SKY/WX    TMP DP  RH WIND       PRES   REMARKS
COLUMBUS AFB   CLOUDY    54  52  94 NW7       29.84F
CORINTH        CLOUDY    54  50  87 NW6       29.86F
GOLDN TRIANGLE CLOUDY    54  46  76 W5        29.82F
STARKVILLE     MOCLDY    52  50  93 CALM      29.88F
TUPELO         CLOUDY    53  49  86 NW7       29.86F
6HR MIN TEMP:  51; 6HR MAX TEMP:  53; 6HR PCP:  0.01;

$$

MSZ040-058-240700-
CENTRAL MISSISSIPPI

CITY           SKY/WX    TMP DP  RH WIND       PRES   REMARKS
JACKSON INTL   CLOUDY    55  51  86 CALM      29.91F
6HR MIN TEMP:  55; 6HR MAX TEMP:  59;

JACKSON HAWKNS PTCLDY    56  50  80 NW3       29.91F
6HR MIN TEMP:  56; 6HR MAX TEMP:  59;

MADISON        FAIR      50  50 100 CALM      29.90F
MERIDIAN KEY   CLOUDY    54  50  86 NW6       29.88F
6HR MIN TEMP:  53; 6HR MAX TEMP:  57;

MERIDIAN NAS   CLOUDY    55  47  74 NW8       29.86F
6HR MIN TEMP:  54; 6HR MAX TEMP:  57;

RAYMOND        FAIR      54  54 100 CALM      29.91F FOG
VICKSBURG VKS    N/A     52  50  93 CALM      29.91F
$$

MSZ059>079-240700-
SOUTH MISSISSIPPI

CITY           SKY/WX    TMP DP  RH WIND       PRES   REMARKS
BROOKHAVEN     FAIR      52  48  87 CALM      29.95F
COLUMBIA       FAIR      52 N/A N/A CALM      29.95F
HATTIESBURG    CLEAR     54  49  83 NW5       29.92F
6HR MIN TEMP:  54; 6HR MAX TEMP:  58;

LAUREL         FAIR      53  52  97 NW3       29.90F
MCCOMB         CLEAR     52  48  86 NW3       29.94F
6HR MIN TEMP:  51; 6HR MAX TEMP:  58;

NATCHEZ        CLEAR     49  48  97 S3        29.96F
6HR MIN TEMP:  49; 6HR MAX TEMP:  61;

PINE BELT      PTCLDY    54  46  76 NW3       29.91F
6HR MIN TEMP:  54; 6HR MAX TEMP:  57;

$$

MSZ080>082-240700-
COASTAL MISSISSIPPI

CITY           SKY/WX    TMP DP  RH WIND       PRES   REMARKS
BILOXI         CLEAR     58  50  77 NW10      29.89F
6HR MIN TEMP:  58; 6HR MAX TEMP:  63;

PASCAGOULA     MOCLDY    56  48  74 NW7       29.89F
6HR MIN TEMP:  56; 6HR MAX TEMP:  63;

GULFPORT       PTCLDY    57  51  80 W7        29.90F
6HR MIN TEMP:  57; 6HR MAX TEMP:  63;

$$

LAZ007>009-015>016-023>026-240700-
NORTHEAST LOUISIANA

CITY           SKY/WX    TMP DP  RH WIND       PRES   REMARKS
BASTROP        FAIR      47  47  99 CALM      29.95F
TALLULAH/VBURG CLEAR     52  51  97 W3        29.94F
6HR MIN TEMP:  52; 6HR MAX TEMP:  65;

VIDALIA        FAIR      50  49  97 CALM      29.95F
$$




USA.gov is the U.S. government's official web portal to all federal, state and local government web resources and services.